Home > Weather > Spartanburg > Past weeks

Flag for USA Weather for the Past 2 Weeks in Spartanburg, South Carolina, USA

Now
70 °F

Clear.


Feels Like: 70 °F
Forecast: 59 / 82 °F
Wind: 3 mph from Northwest

Location: Spartanburg Memorial

Current Time: Apr 30, 2016 at 12:22:05 AM

Latest Report: Apr 29, 2016 at 11:55 PM


Visibility: 10 mi

Pressure: 29.98 "Hg

Humidity: 57%

Dew Point: 54 °F

Location of SpartanburgLocation

Historic Weather in Spartanburg — Graph

°F

Spartanburg Temperature Yesterday

Maximum temperature yesterday: 86 °F (at 2:55 PM)
Minimum temperature yesterday: 59 °F (at 2:15 AM)
Average temperature yesterday: 74 °F

High & Low Weather Summary for the Past Weeks

 TemperatureHumidityPressure
High86 °F (Apr 19, 2:55 PM)100% (Apr 22, 9:15 PM)30.44 "Hg (Apr 22, 9:15 PM)
Low43 °F (Apr 16, 6:35 AM)14% (Apr 16, 3:55 PM)29.80 "Hg (Apr 27, 4:55 PM)
Average66 °F53%30.09 "Hg
* Reported Apr 14 10:15 PM — Apr 29 10:35 PM, Spartanburg, Weather by CustomWeather, © 2016

Note: Actual official high and low records may vary slightly from our data, if they occured in-between our weather recording intervals... More about our weather records

Advertising

Spartanburg Weather History for the Previous 24 Hours

Scroll right to see more
 ConditionsComfort  
Time TempWeatherWind HumidityBarometerVisibility
10:35 PM
Fri, Apr 29
70 °FClear.No wind60%29.97 "Hg10 mi
10:15 PM70 °FClear.No wind60%29.97 "Hg10 mi
9:55 PM70 °FClear.No wind60%29.97 "Hg10 mi
9:15 PM72 °FClear.No wind57%29.96 "Hg10 mi
8:55 PM72 °FSunny.No wind53%29.96 "Hg10 mi
8:35 PM73 °FSunny.No wind50%29.95 "Hg10 mi
7:55 PM77 °FSunny.3 mph42%29.95 "Hg10 mi
7:35 PM79 °FSunny.No wind39%29.94 "Hg10 mi
7:15 PM81 °FSunny.No wind34%29.93 "Hg10 mi
6:55 PM82 °FSunny.3 mph30%29.93 "Hg10 mi
6:35 PM84 °FSunny.7 mph31%29.93 "Hg10 mi
6:15 PM84 °FSunny.6 mph27%29.93 "Hg10 mi
5:55 PM84 °FSunny.5 mph27%29.93 "Hg10 mi
5:35 PM84 °FSunny.3 mph27%29.93 "Hg10 mi
5:15 PM84 °FSunny.5 mph27%29.93 "Hg7 mi
4:55 PM84 °FSunny.3 mph23%29.93 "Hg10 mi
4:35 PM84 °FSunny.3 mph23%29.93 "Hg10 mi
4:15 PM84 °FSunny.No wind22%29.94 "Hg10 mi
3:55 PM86 °FSunny.3 mph20%29.95 "Hg10 mi
3:35 PM84 °FSunny.No wind23%29.95 "Hg10 mi
3:15 PM84 °FSunny.7 mph23%29.96 "Hg10 mi
2:55 PM86 °FSunny.7 mph22%29.97 "Hg10 mi
2:35 PM84 °FSunny.8 mph23%29.97 "Hg10 mi
2:15 PM82 °FSunny.8 mph25%29.97 "Hg10 mi
1:55 PM82 °FSunny.5 mph25%29.97 "Hg10 mi
1:35 PM82 °FSunny.8 mph26%29.97 "Hg10 mi
1:15 PM81 °FSunny.5 mph26%29.98 "Hg10 mi
12:55 PM81 °FSunny.9 mph28%30.00 "Hg10 mi
12:35 PM81 °FSunny.5 mph26%30.00 "Hg10 mi
12:15 PM79 °FSunny.6 mph30%30.00 "Hg10 mi
11:55 AM79 °FSunny.6 mph30%30.00 "Hg10 mi
11:35 AM77 °FSunny.3 mph34%30.00 "Hg10 mi
11:15 AM77 °FSunny.No wind36%30.00 "Hg10 mi
10:55 AM77 °FSunny.No wind34%30.00 "Hg10 mi
10:35 AM77 °FSunny.5 mph36%30.00 "Hg10 mi
10:15 AM75 °FSunny.6 mph36%30.00 "Hg10 mi
9:55 AM73 °FSunny.6 mph38%30.01 "Hg10 mi
9:35 AM73 °FSunny.6 mph41%30.01 "Hg10 mi
9:15 AM73 °FSunny.3 mph44%30.02 "Hg10 mi
8:55 AM72 °FSunny.5 mph50%30.02 "Hg10 mi
8:35 AM70 °FSunny.7 mph53%30.02 "Hg10 mi
8:15 AM70 °FSunny.5 mph53%30.02 "Hg10 mi
7:55 AM63 °FSunny.3 mph73%30.02 "Hg10 mi
7:35 AM61 °FClear.No wind72%30.01 "Hg10 mi
7:15 AM59 °FClear.No wind72%30.01 "Hg10 mi
6:55 AM63 °FClear.No wind64%29.99 "Hg10 mi
6:35 AM64 °FClear.3 mph60%29.99 "Hg10 mi
6:15 AM64 °FClear.3 mph60%29.98 "Hg10 mi
5:55 AM66 °FClear.3 mph56%29.97 "Hg10 mi
5:35 AM68 °FClear.5 mph49%29.96 "Hg10 mi
4:55 AM70 °FClear.12 mph50%29.95 "Hg10 mi
4:35 AM68 °FClear.6 mph53%29.94 "Hg10 mi
4:15 AM66 °FClear.6 mph56%29.94 "Hg10 mi
3:55 AM64 °FClear.5 mph60%29.93 "Hg10 mi
3:35 AM59 °FClear.6 mph77%29.92 "Hg10 mi
3:15 AM59 °FClear.3 mph77%29.91 "Hg10 mi
2:35 AM61 °FClear.3 mph72%29.91 "Hg10 mi
2:15 AM59 °FClear.No wind82%29.91 "Hg10 mi
1:55 AM63 °FClear.No wind73%29.91 "Hg10 mi
1:35 AM63 °FClear.No wind73%29.91 "Hg10 mi
12:55 AM64 °FClear.5 mph64%29.91 "Hg10 mi
12:35 AM68 °FClear.3 mph56%29.91 "Hg10 mi
12:15 AM68 °FClear.3 mph56%29.91 "Hg10 mi
Weather by CustomWeather, © 2016

See weather overviewHow to use our weather pages